NOAA 16 DEB

Satellite information

Favourite Embed

Satellite Type and Status

DEBRISIN ORBIT

Key statistics

Satellite NOAA 16 DEB at a glance.

Uptime

8995

Days in orbit

Revolutions

≈ 14.6

Per day

Orbit

SSO

Sun Synchronous Orbit

Inclination

99.0

Latest

Satellite identification and parameters

Extended collection of information and parameters for NOAA 16 DEB.

Object identification

Identified? True

Debris? True

Object name: NOAA 16 DEB

International designator: 2000-055GS

Object number (NORAD): 41290

Object ID (CCSDS): 41290

Country: UNITED STATES OF AMERICA (US)

Current information (Y/N): Y

RCS size: SMALL

Orbital parameters

Period: 98.805 minutes

Inclination: 99.0205 deg

SMA: 7079.68 km

Apoapsis: 712.135 km

Periapsis: 690.956 km

RAAN: 332.6198 deg

Eccentricy: 0.0014958

Argument of periapsis: 263.8113 deg

Mean anomaly: 96.1379 deg

Mean motion: 14.57411832 rev/day

Mean motion (dot): 0.00014803 rev/day2

B* drag term: 0.0032635 1/REarth

Two-line elements (TLE)

Creation date: May 8, 2025, 3:01 a.m.

Reference frame: TEME

Reference center: EARTH

Epoch: May 7, 2025, 12:49 p.m. UTC

TLE line 0: 0 NOAA 16 DEB

TLE line 1: 1 41290U 00055GS 25127.53422023 .00014803 00000-0 32635-2 0 9991

TLE line 2: 2 41290 99.0205 332.6198 0014958 263.8113 96.1379 14.57411832487365

Live tracking on map

Real-time ground track for satellite NOAA 16 DEB.

In-orbit conjunctions

A list of the most updated potential collisions computed for object NOAA 16 DEB.

Target Orbit TCA Probability of collision Miss distance Type
CZ-6A DEB SSO 2025-01-24 10:03:18 0.0001554349 79.0 (m) DEBRIS
IRIDIUM 33 DEB LEO 2024-09-02 05:49:49 0.0001128163 355.0 (m) DEBRIS
SL-8 R/B LEO 2024-08-16 02:59:42 0.0001577523 889.0 (m) ROCKET BODY

Associated space launch

The NOAA K, L and M POES satellites begin the fifth generation of improved environmental monitoring in support of NOAA missions. The instrument payload has significant improvements and additions/deletions. The instrument changes have effected the spacecraft subsystems and data formats.

NOAA 16 DEB was lifted into orbit during the mission ‘Titan II SLV | NOAA 16’, on board a Titan II SLV space rocket.

The launch took place on Sept. 21, 2000, 10:22 a.m. from Space Launch Complex 4W.

For more information about the launch, click the button.

Launch to space Titan II SLV | NOAA 16
Titan II SLV | NOAA 16

Agency: N/A

Status: Launch Successful

Launch date: Sept. 21, 2000, 10:22 a.m. UTC

Rocket: Titan II SLV

Launch pad: Space Launch Complex 4W

Location: Vandenberg SFB, CA, USA

...

Latest news about this satellite

There are no fresh news available about this satellite. Check back as we update our databases every day.


Newsletter sign-up

Weekly statistics, charts and insights to help you stay on top of the space industry.